Home   Weather   Limerick   Past weeks

Flag for Ireland Past Weather in Limerick, Ireland — Yesterday and Last 2 Weeks

Now
57 °F

Partly cloudy.


Feels Like: 53 °F
Forecast: 53 / 59 °F
Wind: 17 mph from South

Location: Shannon Airport

Current Time: Dec 7, 2016 at 9:00:06 am

Latest Report: Dec 7, 2016 at 8:30 am


Visibility: N/A

Pressure: 29.86 "Hg

Humidity: 88%

Dew Point: 54 °F

Location of LimerickLocation

Past Weather in Limerick — Graph

°F

Limerick Temperature Yesterday

Maximum temperature yesterday: 57 °F (at 5:30 pm)
Minimum temperature yesterday: 50 °F (at 12:00 am)
Average temperature yesterday: 53 °F

High & Low Weather Summary for the Past Weeks

 TemperatureHumidityPressure
High59 °F (Dec 7, 7:00 am)100% (Nov 22, 10:00 pm)30.60 "Hg (Nov 22, 10:00 pm)
Low27 °F (Dec 1, 2:30 am)66% (Nov 22, 1:30 pm)29.71 "Hg (Nov 22, 7:00 am)
Average40 °F89%30.26 "Hg
* Reported Nov 22 7:00 am — Dec 7 7:30 am, Limerick, Weather by CustomWeather, © 2016

Note: Actual official high and low records may vary slightly from our data, if they occured in-between our weather recording intervals... More about our weather records

Advertising

Limerick Weather History for the Previous 24 Hours

Scroll right to see more
 ConditionsComfort  
Time TempWeatherWind HumidityBarometerVisibility
7:30 am
Wed, Dec 7
57 °FPassing clouds.16 mph88%29.86 "HgN/A
7:00 am59 °FPassing clouds.22 mph82%29.86 "HgN/A
6:30 am57 °FPassing clouds.25 mph88%29.86 "HgN/A
6:00 am57 °FPassing clouds.22 mph88%29.86 "HgN/A
5:30 am57 °FPassing clouds.24 mph88%29.86 "HgN/A
5:00 am57 °FPassing clouds.21 mph88%29.89 "HgN/A
4:30 am57 °FPartly cloudy.24 mph88%29.89 "HgN/A
4:00 am57 °FPassing clouds.23 mph88%29.89 "HgN/A
3:30 am57 °FPassing clouds.26 mph88%29.89 "HgN/A
3:00 am57 °FPassing clouds.17 mph94%29.89 "HgN/A
2:30 am55 °FPassing clouds.13 mph94%29.92 "HgN/A
2:00 am55 °FPassing clouds.16 mph94%29.92 "HgN/A
1:30 am55 °FPassing clouds.18 mph94%29.92 "HgN/A
1:00 am55 °FPassing clouds.18 mph94%29.92 "HgN/A
12:30 am57 °FPassing clouds.18 mph88%29.95 "HgN/A
12:00 am55 °FPassing clouds.17 mph94%29.95 "HgN/A
11:30 pm
Tue, Dec 6
55 °FPassing clouds.12 mph94%29.95 "HgN/A
11:00 pm55 °FPassing clouds.12 mph94%29.95 "HgN/A
10:30 pm55 °FPassing clouds.13 mph94%29.98 "HgN/A
10:00 pm55 °FPassing clouds.15 mph94%29.98 "HgN/A
9:00 pm57 °FPassing clouds.15 mph88%29.98 "HgN/A
8:30 pm55 °FPartly cloudy.14 mph94%29.98 "HgN/A
8:00 pm57 °FPartly cloudy.21 mph88%29.98 "HgN/A
7:30 pm57 °FPassing clouds.13 mph88%29.98 "HgN/A
7:00 pm57 °FPassing clouds.14 mph88%29.98 "HgN/A
6:00 pm55 °FPassing clouds.15 mph94%29.98 "HgN/A
5:30 pm57 °FPassing clouds.16 mph88%29.98 "HgN/A
5:00 pm55 °FPassing clouds.18 mph94%29.98 "HgN/A
4:30 pm55 °FPassing clouds.18 mph94%29.95 "HgN/A
4:00 pm55 °FPartly sunny.16 mph94%29.95 "HgN/A
3:30 pm55 °FPartly sunny.14 mph94%29.98 "HgN/A
3:00 pm55 °FPartly sunny.16 mph94%29.98 "HgN/A
2:30 pm55 °FPartly sunny.20 mph88%29.98 "HgN/A
2:00 pm55 °FPartly sunny.16 mph94%29.98 "HgN/A
1:30 pm55 °FBroken clouds.14 mph94%29.98 "HgN/A
1:00 pm54 °FPartly sunny.14 mph94%30.01 "HgN/A
12:30 pm54 °FPartly sunny.14 mph94%30.01 "HgN/A
12:00 pm54 °FPartly sunny.17 mph94%30.01 "HgN/A
11:30 am54 °FLight rain. Partly sunny.21 mph94%30.01 "HgN/A
11:00 am52 °FLight rain. Broken clouds.18 mph100%30.01 "Hg5 mi
10:30 am52 °FLight rain. Broken clouds.16 mph100%30.04 "Hg5 mi
10:00 am52 °FLight rain. Broken clouds.18 mph100%30.04 "Hg4 mi
9:30 am52 °FLight rain. Partly sunny.17 mph100%30.04 "Hg4 mi
9:00 am52 °FLight rain. Broken clouds.15 mph94%30.04 "Hg4 mi
Weather by CustomWeather, © 2016

See weather overviewHow to use our weather pages